SR-99 : Kings River Atmospheric Data: 11/28/2020 Summary  Detailed Graphs  Station List

  Temperature     Wind Precipitation Visibility
Timestamp Air Wet
Bulb
Dew-
point
24-hr
Max
24-hr
Min
Relative
Humidity
Atmospheric
Pressure
Avg
Speed
Avg
Dir
Spot
Speed
Spot
Dir
Max
Speed
Max
Dir
  Rate Situation Start End 1 hr 3 hr 6 hr 12 hr 24 hr   Situation
Date Time °F °F °F °F °F % in Hg mph ° mph ° mph ° Y/N in/hr text Date Time Date Time in in in in in mi text
11/28/2020 12:00 AM x x x x x x 29.95 2.01 NE 2.68 NE 3.58 NE x x Other     x x x x x 1.24 Clear
11/28/2020 12:01 AM x x x x x x 29.96 2.46 E 3.80 E 4.70 E x x Other     x x x x x 1.24 Clear
11/28/2020 12:02 AM x x x x x x 29.96 2.91 E 3.13 E 4.70 E x x Other     x x x x x 1.24 Clear
11/28/2020 12:03 AM x x x x x x 29.96 2.91 E 2.46 E 4.70 E x x Other     x x x x x 1.24 Clear
11/28/2020 12:04 AM x x x x x x 29.96 2.91 E 2.68 E 4.70 E x x Other     x x x x x 1.24 Clear
11/28/2020 12:05 AM x x x x x x 29.96 2.68 E 2.46 E 4.70 E x x Other     x x x x x 1.24 Clear
11/28/2020 12:06 AM x x x x x x 29.96 2.46 E 2.68 E 4.70 E x x Other     x x x x x 1.24 Clear
11/28/2020 12:07 AM x x x x x x 29.96 2.01 E 1.34 NE 4.70 E x x Other     x x x x x 1.24 Clear
11/28/2020 12:08 AM x x x x x x 29.96 1.57 E 1.34 NE 4.70 E x x Other     x x x x x 1.24 Clear
11/28/2020 12:09 AM x x x x x x 29.96 1.34 E 1.12 E 4.70 E x x Other     x x x x x 1.24 Clear
11/28/2020 12:10 AM x x x x x x 29.96 0.89 NE 0.45 NE 4.70 E x x Other     x x x x x 1.24 Clear
11/28/2020 12:11 AM x x x x x x 29.96 0.89 E 0.89 E 3.36 E x x Other     x x x x x 1.24 Clear
11/28/2020 12:12 AM x x x x x x 29.96 1.12 E 2.01 W 3.36 E x x Other     x x x x x 1.24 Clear
11/28/2020 12:13 AM x x x x x x 29.96 1.12 E 0.67 NE 3.36 E x x Other     x x x x x 1.24 Clear
11/28/2020 12:14 AM x x x x x x 29.96 0.89 E 0.67 N 2.91 E x x Other     x x x x x 1.24 Clear
11/28/2020 12:15 AM x x x x x x 29.96 0.45 NE 0.45 N 2.91 E x x Other     x x x x x 1.24 Clear
11/28/2020 12:16 AM x x x x x x 29.96 0.45 N 1.12 N 2.24 NE x x Other     x x x x x 1.24 Clear
11/28/2020 12:17 AM x x x x x x 29.96 0.45 N 0.45 NE 2.24 NE x x Other     x x x x x 1.24 Clear
11/28/2020 12:18 AM x x x x x x 29.96 0.67 N 1.79 N 2.24 NE x x Other     x x x x x 1.24 Clear
11/28/2020 12:19 AM x x x x x x 29.96 0.89 NW 1.12 N 2.24 NE x x Other     x x x x x 1.24 Clear
11/28/2020 12:20 AM x x x x x x 29.96 0.89 E 0.67 E 2.24 E x x Other     x x x x x 1.24 Clear
11/28/2020 12:21 AM x x x x x x 29.96 0.67 E 0.89 E 2.24 NW x x Other     x x x x x 1.24 Clear
11/28/2020 12:22 AM x x x x x x 29.96 0.89 E 2.01 E 2.46 E x x Other     x x x x x 1.24 Clear
11/28/2020 12:23 AM x x x x x x 29.95 1.79 E 2.91 E 2.91 E x x Other     x x x x x 1.24 Clear
11/28/2020 12:24 AM x x x x x x 29.95 2.24 E 2.01 E 3.36 E x x Other     x x x x x 1.24 Clear
11/28/2020 12:25 AM x x x x x x 29.96 2.24 E 2.24 E 3.36 E x x Other     x x x x x 1.24 Clear
11/28/2020 12:26 AM x x x x x x 29.96 2.24 E 2.01 NE 3.36 E x x Other     x x x x x 1.24 Clear
11/28/2020 12:27 AM x x x x x x 29.96 2.24 E 2.68 NE 3.36 E x x Other     x x x x x 1.24 Clear
11/28/2020 12:28 AM x x x x x x 29.96 2.24 NE 2.01 NE 3.36 E x x Other     x x x x x 1.24 Clear
11/28/2020 12:29 AM x x x x x x 29.95 2.01 E 1.34 E 3.36 E x x Other     x x x x x 1.24 Clear
11/28/2020 12:30 AM x x x x x x 29.95 1.79 E 1.12 SE 3.36 E x x Other     x x x x x 1.24 Clear
11/28/2020 12:31 AM x x x x x x 29.95 1.57 E 1.57 NE 3.36 E x x Other     x x x x x 1.24 Clear
11/28/2020 12:32 AM x x x x x x 29.95 1.34 E 0.45 S 3.36 E x x Other     x x x x x 1.24 Clear
11/28/2020 12:33 AM x x x x x x 29.95 1.12 E 0.67 NE 3.36 E x x Other     x x x x x 1.24 Clear
11/28/2020 12:34 AM x x x x x x 29.95 1.12 E 1.12 E 4.03 N x x Other     x x x x x 1.24 Clear
11/28/2020 12:35 AM x x x x x x 29.95 1.34 E 0.89 E 4.03 N x x Other     x x x x x 1.24 Clear
11/28/2020 12:36 AM x x x x x x 29.95 1.57 E 2.68 E 4.03 N x x Other     x x x x x 1.24 Clear
11/28/2020 12:38 AM x x x x x x 29.95 2.46 E 3.13 E 4.03 N x x Other     x x x x x 1.24 Clear
11/28/2020 12:39 AM x x x x x x 29.95 2.46 E 2.24 SE 4.03 N x x Other     x x x x x 1.24 Clear
11/28/2020 12:40 AM x x x x x x 29.95 2.24 E 1.79 E 4.03 N x x Other     x x x x x 1.24 Clear
11/28/2020 12:41 AM x x x x x x 29.95 2.01 E 1.79 E 4.03 N x x Other     x x x x x 1.24 Clear
11/28/2020 12:42 AM x x x x x x 29.95 1.79 E 1.34 SE 4.03 N x x Other     x x x x x 1.24 Clear
11/28/2020 12:43 AM x x x x x x 29.95 1.79 E 2.01 SE 3.13 E x x Other     x x x x x 1.24 Clear
11/28/2020 12:44 AM x x x x x x 29.95 2.01 E 2.46 E 3.13 E x x Other     x x x x x 1.24 Clear
11/28/2020 12:45 AM x x x x x x 29.95 2.46 E 2.46 E 3.13 E x x Other     x x x x x 1.24 Clear
11/28/2020 12:46 AM x x x x x x 29.95 2.46 E 1.79 E 3.13 E x x Other     x x x x x 1.24 Clear
11/28/2020 12:47 AM x x x x x x 29.95 2.24 E 2.68 E 3.13 E x x Other     x x x x x 1.24 Clear
11/28/2020 12:48 AM x x x x x x 29.95 2.24 E 2.46 E 3.13 E x x Other     x x x x x 1.24 Clear
11/28/2020 12:49 AM x x x x x x 29.95 2.68 E 3.13 E 3.58 E x x Other     x x x x x 1.24 Clear
11/28/2020 12:50 AM x x x x x x 29.95 2.91 E 3.13 E 3.58 E x x Other     x x x x x 1.24 Clear
11/28/2020 12:51 AM x x x x x x 29.95 2.91 E 3.36 E 3.80 E x x Other     x x x x x 1.24 Clear
11/28/2020 12:52 AM x x x x x x 29.95 3.13 E 3.13 E 3.80 E x x Other     x x x x x 1.24 Clear
11/28/2020 12:53 AM x x x x x x 29.95 3.13 E 3.36 E 3.80 E x x Other     x x x x x 1.24 Clear
11/28/2020 12:54 AM x x x x x x 29.95 3.13 E 3.13 E 3.80 E x x Other     x x x x x 1.24 Clear
11/28/2020 12:55 AM x x x x x x 29.95 3.13 E 2.91 E 3.80 E x x Other     x x x x x 1.24 Clear
11/28/2020 12:56 AM x x x x x x 29.95 2.91 E 2.01 E 3.80 E x x Other     x x x x x 1.24 Clear
11/28/2020 12:57 AM x x x x x x 29.95 2.91 E 2.91 E 3.80 E x x Other     x x x x x 1.24 Clear
11/28/2020 12:58 AM x x x x x x 29.95 2.91 E 2.91 E 3.80 E x x Other     x x x x x 1.24 Clear
11/28/2020 12:59 AM x x x x x x 29.95 2.68 E 2.91 E 3.80 E x x Other     x x x x x 1.24 Clear
11/28/2020 01:00 AM x x x x x x 29.95 2.68 E 3.13 E 3.80 E x x Other     x x x x x 1.24 Clear
11/28/2020 01:01 AM x x x x x x 29.95 2.91 E 2.68 E 3.58 E x x Other     x x x x x 1.24 Clear
11/28/2020 01:02 AM x x x x x x 29.95 2.91 E 2.91 E 3.58 E x x Other     x x x x x 1.24 Clear
11/28/2020 01:03 AM x x x x x x 29.95 3.13 E 3.80 E 3.80 E x x Other     x x x x x 1.24 Clear
11/28/2020 01:04 AM x x x x x x 29.95 3.36 E 3.13 E 3.80 E x x Other     x x x x x 1.24 Clear
11/28/2020 01:05 AM x x x x x x 29.95 3.36 E 3.36 E 3.80 E x x Other     x x x x x 1.24 Clear
11/28/2020 01:06 AM x x x x x x 29.95 3.36 E 4.03 E 4.25 E x x Other     x x x x x 1.24 Clear
11/28/2020 01:07 AM x x x x x x 29.95 3.58 E 4.25 E 4.47 E x x Other     x x x x x 1.24 Clear
11/28/2020 01:08 AM x x x x x x 29.95 3.80 E 3.58 E 4.47 E x x Other     x x x x x 1.24 Clear
11/28/2020 01:09 AM x x x x x x 29.95 4.03 E 4.47 E 4.70 E x x Other     x x x x x 1.24 Clear
11/28/2020 01:10 AM x x x x x x 29.95 4.03 E 3.58 E 4.70 E x x Other     x x x x x 1.24 Clear
11/28/2020 01:11 AM x x x x x x 29.95 3.80 E 3.58 E 4.70 E x x Other     x x x x x 1.24 Clear
11/28/2020 01:12 AM x x x x x x 29.95 3.36 E 3.80 E 4.70 E x x Other     x x x x x 1.24 Clear
11/28/2020 01:13 AM x x x x x x 29.95 3.58 E 4.25 E 4.70 E x x Other     x x x x x 1.24 Clear
11/28/2020 01:14 AM x x x x x x 29.95 3.36 E 1.34 E 4.70 E x x Other     x x x x x 1.24 Clear
11/28/2020 01:15 AM x x x x x x 29.95 2.46 N 2.24 NE 4.70 N x x Other     x x x x x 1.24 Clear
11/28/2020 01:16 AM x x x x x x 29.95 2.01 N 2.68 NE 4.70 N x x Other     x x x x x 1.24 Clear
11/28/2020 01:17 AM x x x x x x 29.95 1.34 NE 0.67 E 4.70 N x x Other     x x x x x 1.24 Clear
11/28/2020 01:18 AM x x x x x x 29.95 0.89 E 2.01 E 4.70 N x x Other     x x x x x 1.24 Clear
11/28/2020 01:19 AM x x x x x x 29.95 1.79 E 2.24 E 4.70 N x x Other     x x x x x 1.24 Clear
11/28/2020 01:20 AM x x x x x x 29.95 2.24 E 2.68 E 4.70 N x x Other     x x x x x 1.24 Clear
11/28/2020 01:21 AM x x x x x x 29.95 2.46 E 2.24 SE 4.70 N x x Other     x x x x x 1.24 Clear
11/28/2020 01:22 AM x x x x x x 29.95 2.46 E 2.91 SE 4.70 N x x Other     x x x x x 1.24 Clear
11/28/2020 01:23 AM x x x x x x 29.95 2.46 E 3.13 E 4.70 N x x Other     x x x x x 1.24 Clear
11/28/2020 01:24 AM x x x x x x 29.95 2.24 E 0.67 E 3.58 E x x Other     x x x x x 1.24 Clear
11/28/2020 01:25 AM x x x x x x 29.95 1.34 E 0.67 N 3.58 E x x Other     x x x x x 1.24 Clear
11/28/2020 01:26 AM x x x x x x 29.95 0.89 E 0.89 NE 3.58 E x x Other     x x x x x 1.24 Clear
11/28/2020 01:27 AM x x x x x x 29.95 1.12 E 0.89 SW 3.58 E x x Other     x x x x x 1.24 Clear
11/28/2020 01:29 AM x x x x x x 29.95 2.24 E 2.46 E 3.58 E x x Other     x x x x x 1.24 Clear
11/28/2020 01:31 AM x x x x x x 29.95 2.46 E 2.68 E 3.58 E x x Other     x x x x x 1.24 Clear
11/28/2020 01:32 AM x x x x x x 29.95 2.68 E 2.91 E 3.58 E x x Other     x x x x x 1.24 Clear
11/28/2020 01:33 AM x x x x x x 29.94 2.91 E 2.24 E 3.58 E x x Other     x x x x x 1.24 Clear
11/28/2020 01:34 AM x x x x x x 29.95 2.46 E 2.46 E 3.58 E x x Other     x x x x x 1.24 Clear
11/28/2020 01:35 AM x x x x x x 29.94 2.68 NE 3.13 NE 3.58 E x x Other     x x x x x 1.24 Clear
11/28/2020 01:36 AM x x x x x x 29.94 3.13 NE 3.58 E 3.58 E x x Other     x x x x x 1.24 Clear
11/28/2020 01:37 AM x x x x x x 29.94 3.36 E 3.58 E 3.80 E x x Other     x x x x x 1.24 Clear
11/28/2020 01:38 AM x x x x x x 29.94 3.80 E 3.80 E 4.25 NE x x Other     x x x x x 1.24 Clear
11/28/2020 01:39 AM x x x x x x 29.94 3.80 E 4.03 E 4.25 NE x x Other     x x x x x 1.24 Clear
11/28/2020 01:40 AM x x x x x x 29.94 3.80 E 3.36 NE 4.25 NE x x Other     x x x x x 1.24 Clear
11/28/2020 01:41 AM x x x x x x 29.95 3.58 E 2.68 E 4.25 NE x x Other     x x x x x 1.24 Clear
11/28/2020 01:42 AM x x x x x x 29.94 3.13 E 2.68 E 4.25 NE x x Other     x x x x x 1.24 Clear
11/28/2020 01:43 AM x x x x x x 29.95 2.91 E 3.80 E 4.25 NE x x Other     x x x x x 1.24 Clear
11/28/2020 01:44 AM x x x x x x 29.94 3.13 E 2.91 E 4.25 NE x x Other     x x x x x 1.24 Clear
11/28/2020 01:45 AM x x x x x x 29.94 3.13 E 3.58 E 4.25 NE x x Other     x x x x x 1.24 Clear
11/28/2020 01:46 AM x x x x x x 29.95 2.91 E 2.91 E 4.25 NE x x Other     x x x x x 1.24 Clear
11/28/2020 01:47 AM x x x x x x 29.95 2.91 E 3.13 E 4.25 NE x x Other     x x x x x 1.24 Clear
11/28/2020 01:48 AM x x x x x x 29.94 2.91 E 2.68 E 4.25 E x x Other     x x x x x 1.24 Clear
11/28/2020 01:49 AM x x x x x x 29.94 2.91 E 3.58 E 4.03 E x x Other     x x x x x 1.24 Clear
11/28/2020 01:50 AM x x x x x x 29.94 3.36 E 2.91 E 4.25 E x x Other     x x x x x 1.24 Clear
11/28/2020 01:51 AM x x x x x x 29.94 2.91 E 2.01 E 4.25 E x x Other     x x x x x 1.24 Clear
11/28/2020 01:52 AM x x x x x x 29.94 2.46 E 2.68 E 4.25 E x x Other     x x x x x 1.24 Clear
11/28/2020 01:53 AM x x x x x x 29.94 2.68 E 2.91 E 4.25 E x x Other     x x x x x 1.24 Clear
11/28/2020 01:54 AM x x x x x x 29.94 2.91 E 2.46 E 4.25 E x x Other     x x x x x 1.24 Clear
11/28/2020 01:55 AM x x x x x x 29.94 2.91 E 3.13 E 4.25 E x x Other     x x x x x 1.24 Clear
11/28/2020 01:56 AM x x x x x x 29.94 2.91 E 3.13 E 4.25 E x x Other     x x x x x 1.24 Clear
11/28/2020 01:57 AM x x x x x x 29.94 2.91 E 2.68 E 4.25 E x x Other     x x x x x 1.24 Clear
11/28/2020 01:58 AM x x x x x x 29.94 3.13 E 3.36 NE 4.25 E x x Other     x x x x x 1.24 Clear
11/28/2020 01:59 AM x x x x x x 29.94 3.36 NE 2.91 E 3.80 NE x x Other     x x x x x 1.24 Clear
11/28/2020 02:00 AM x x x x x x 29.95 3.13 E 3.13 NE 3.80 NE x x Other     x x x x x 1.24 Clear
11/28/2020 02:01 AM x x x x x x 29.94 2.91 E 2.46 E 3.80 NE x x Other     x x x x x 1.24 Clear
11/28/2020 02:02 AM x x x x x x 29.95 2.91 E 2.91 E 3.80 NE x x Other     x x x x x 1.24 Clear
11/28/2020 02:03 AM x x x x x x 29.95 3.13 E 3.36 E 3.80 NE x x Other     x x x x x 1.24 Clear
11/28/2020 02:04 AM x x x x x x 29.94 3.13 E 3.13 E 3.80 NE x x Other     x x x x x 1.24 Clear
11/28/2020 02:05 AM x x x x x x 29.94 2.46 E 2.68 E 3.80 NE x x Other     x x x x x 1.24 Clear
11/28/2020 02:06 AM x x x x x x 29.95 2.24 E 2.01 E 3.80 NE x x Other     x x x x x 1.24 Clear
11/28/2020 02:07 AM x x x x x x 29.95 2.46 E 2.46 SE 3.80 NE x x Other     x x x x x 1.24 Clear
11/28/2020 02:08 AM x x x x x x 29.95 2.24 SE 1.79 SE 3.80 E x x Other     x x x x x 1.24 Clear
11/28/2020 02:09 AM x x x x x x 29.95 1.57 SE 0.45 E 3.80 E x x Other     x x x x x 1.24 Clear
11/28/2020 02:10 AM x x x x x x 29.94 1.12 E 1.34 E 3.80 E x x Other     x x x x x 1.24 Clear
11/28/2020 02:11 AM x x x x x x 29.94 0.89 E 0.67 N 3.80 E x x Other     x x x x x 1.24 Clear
11/28/2020 02:12 AM x x x x x x 29.94 0.89 NE 1.57 NE 3.80 E x x Other     x x x x x 1.24 Clear
11/28/2020 02:13 AM x x x x x x 29.94 1.57 E 2.68 E 3.36 E x x Other     x x x x x 1.24 Clear
11/28/2020 02:14 AM x x x x x x 29.94 2.24 E 1.57 E 3.36 E x x Other     x x x x x 1.24 Clear
11/28/2020 02:15 AM x x x x x x 29.94 1.79 E 0.89 SE 3.36 E x x Other     x x x x x 1.24 Clear
11/28/2020 02:16 AM x x x x x x 29.94 1.12 E 0.67 E 3.36 E x x Other     x x x x x 1.24 Clear
11/28/2020 02:17 AM x x x x x x 29.94 1.12 E 0.89 W 3.36 E x x Other     x x x x x 1.24 Clear
11/28/2020 02:18 AM x x x x x x 29.94 1.34 E 2.01 E 3.36 E x x Other     x x x x x 1.24 Clear
11/28/2020 02:19 AM x x x x x x 29.94 1.79 SE 1.79 SE 3.36 E x x Other     x x x x x 1.24 Clear
11/28/2020 02:20 AM x x x x x x 29.94 2.24 E 2.46 E 3.36 E x x Other     x x x x x 1.24 Clear
11/28/2020 02:21 AM x x x x x x 29.94 2.46 E 2.46 E 3.58 E x x Other     x x x x x 1.24 Clear
11/28/2020 02:22 AM x x x x x x 29.94 2.46 E 2.01 E 3.58 E x x Other     x x x x x 1.24 Clear
11/28/2020 02:23 AM x x x x x x 29.94 1.79 E 2.46 E 3.58 E x x Other     x x x x x 1.24 Clear
11/28/2020 02:25 AM x x x x x x 29.94 2.01 E 2.46 E 3.58 E x x Other     x x x x x 1.24 Clear
11/28/2020 02:26 AM x x x x x x 29.94 2.01 E 2.24 E 3.58 E x x Other     x x x x x 1.24 Clear
11/28/2020 02:27 AM x x x x x x 29.94 1.79 E 1.79 E 3.58 E x x Other     x x x x x 1.24 Clear
11/28/2020 02:28 AM x x x x x x 29.94 1.79 E 0.45 NW 3.58 E x x Other     x x x x x 1.24 Clear
11/28/2020 02:29 AM x x x x x x 29.94 2.46 E 3.58 E 4.47 E x x Other     x x x x x 1.24 Clear
11/28/2020 02:30 AM x x x x x x 29.94 2.68 E 2.24 E 4.47 E x x Other     x x x x x 1.24 Clear
11/28/2020 02:31 AM x x x x x x 29.94 2.24 E 2.01 NE 4.47 E x x Other     x x x x x 1.24 Clear
11/28/2020 02:32 AM x x x x x x 29.94 2.24 E 2.46 E 4.47 E x x Other     x x x x x 1.24 Clear
11/28/2020 02:33 AM x x x x x x 29.94 2.46 E 2.68 E 4.47 E x x Other     x x x x x 1.24 Clear
11/28/2020 02:34 AM x x x x x x 29.94 2.68 E 3.13 NE 4.47 E x x Other     x x x x x 1.24 Clear
11/28/2020 02:35 AM x x x x x x 29.94 2.68 NE 2.46 NE 4.47 E x x Other     x x x x x 1.24 Clear
11/28/2020 02:36 AM x x x x x x 29.94 2.68 E 2.46 E 4.47 E x x Other     x x x x x 1.24 Clear
11/28/2020 02:37 AM x x x x x x 29.94 2.46 E 0.67 E 4.47 E x x Other     x x x x x 1.24 Clear
11/28/2020 02:38 AM x x x x x x 29.94 2.01 NE 1.79 E 4.47 E x x Other     x x x x x 1.24 Clear
11/28/2020 02:39 AM x x x x x x 29.94 1.57 E 2.01 E 3.80 E x x Other     x x x x x 1.24 Clear
11/28/2020 02:40 AM x x x x x x 29.94 1.79 E 1.79 E 3.80 E x x Other     x x x x x 1.24 Clear
11/28/2020 02:41 AM x x x x x x 29.94 2.01 E 2.01 E 3.80 E x x Other     x x x x x 1.24 Clear
11/28/2020 02:42 AM x x x x x x 29.94 2.24 E 2.68 E 3.80 E x x Other     x x x x x 1.24 Clear
11/28/2020 02:43 AM x x x x x x 29.94 2.68 E 2.68 E 3.80 E x x Other     x x x x x 1.24 Clear
11/28/2020 02:44 AM x x x x x x 29.94 2.46 E 2.01 E 3.36 E x x Other     x x x x x 1.24 Clear
11/28/2020 02:45 AM x x x x x x 29.94 2.01 E 1.34 NE 3.36 E x x Other     x x x x x 1.24 Clear
11/28/2020 02:46 AM x x x x x x 29.94 1.79 E 0.89 E 3.36 E x x Other     x x x x x 1.24 Clear
11/28/2020 02:47 AM x x x x x x 29.94 1.57 E 1.79 E 3.36 E x x Other     x x x x x 1.24 Clear
11/28/2020 02:48 AM x x x x x x 29.94 1.79 E 3.13 E 3.36 E x x Other     x x x x x 1.24 Clear
11/28/2020 02:49 AM x x x x x x 29.94 2.24 E 1.79 E 3.36 E x x Other     x x x x x 1.24 Clear
11/28/2020 02:50 AM x x x x x x 29.94 2.24 E 2.01 E 3.36 E x x Other     x x x x x 1.24 Clear
11/28/2020 02:51 AM x x x x x x 29.94 1.79 E 0.67 N 3.36 E x x Other     x x x x x 1.24 Clear
11/28/2020 02:52 AM x x x x x x 29.94 1.12 E 1.34 E 3.36 E x x Other     x x x x x 1.24 Clear
11/28/2020 02:53 AM x x x x x x 29.94 1.12 NE 0.45 E 3.13 E x x Other     x x x x x 1.24 Clear
11/28/2020 02:54 AM x x x x x x 29.94 1.12 E 1.34 SE 3.13 E x x Other     x x x x x 1.24 Clear
11/28/2020 02:55 AM x x x x x x 29.94 1.12 SE 1.12 E 3.13 E x x Other     x x x x x 1.24 Clear
11/28/2020 02:56 AM x x x x x x 29.94 1.34 NE 2.01 NW 3.13 E x x Other     x x x x x 1.24 Clear
11/28/2020 02:57 AM x x x x x x 29.94 1.12 NE 1.12 NE 3.13 E x x Other     x x x x x 1.24 Clear
11/28/2020 02:58 AM x x x x x x 29.94 1.12 NE 1.57 NW 3.13 E x x Other     x x x x x 1.24 Clear
11/28/2020 02:59 AM x x x x x x 29.94 1.12 NW 0.45 W 2.46 E x x Other     x x x x x 1.24 Clear
11/28/2020 03:00 AM x x x x x x 29.94 0.67 NW 0.89 NW 2.24 N x x Other     x x x x x 1.24 Clear
11/28/2020 03:01 AM x x x x x x 29.94 0.67 W 1.79 NW 2.24 N x x Other     x x x x x 1.24 Clear
11/28/2020 03:02 AM x x x x x x 29.94 0.89 W 0.67 W 2.24 N x x Other     x x x x x 1.24 Clear
11/28/2020 03:03 AM x x x x x x 29.94 0.67 W 0.22 W 2.24 N x x Other     x x x x x 1.24 Clear
11/28/2020 03:04 AM x x x x x x 29.94 0.45 W 0.22 SE 2.24 N x x Other     x x x x x 1.24 Clear
11/28/2020 03:05 AM x x x x x x 29.94 0.22 SW 0.89 N 2.24 N x x Other     x x x x x 1.24 Clear
11/28/2020 03:06 AM x x x x x x 29.94 0.45 S 0.89 N 1.79 NW x x Other     x x x x x 1.24 Clear
11/28/2020 03:07 AM x x x x x x 29.94 0.67 NE 0.67 E 1.79 NW x x Other     x x x x x 1.24 Clear
11/28/2020 03:08 AM x x x x x x 29.94 0.89 E 0.67 N 1.79 NW x x Other     x x x x x 1.24 Clear
11/28/2020 03:09 AM x x x x x x 29.94 0.67 E 0.89 E 1.79 NW x x Other     x x x x x 1.24 Clear
11/28/2020 03:10 AM x x x x x x 29.94 0.89 E 0.45 NW 2.01 N x x Other     x x x x x 1.24 Clear
11/28/2020 03:11 AM x x x x x x 29.94 0.89 E 0.45 E 2.01 N x x Other     x x x x x 1.24 Clear
11/28/2020 03:12 AM x x x x x x 29.94 0.89 E 0.67 SE 2.01 N x x Other     x x x x x 1.24 Clear
11/28/2020 03:13 AM x x x x x x 29.94 0.67 E 2.01 W 2.01 N x x Other     x x x x x 1.24 Clear
11/28/2020 03:14 AM x x x x x x 29.94 0.89 W 0.45 SW 3.58 NW x x Other     x x x x x 1.24 Clear
11/28/2020 03:15 AM x x x x x x 29.94 0.89 SW 0.89 NE 3.58 NW x x Other     x x x x x 1.24 Clear
11/28/2020 03:16 AM x x x x x x 29.94 0.67 E 1.34 SE 3.58 NW x x Other     x x x x x 1.24 Clear
11/28/2020 03:17 AM x x x x x x 29.94 0.89 E 0.67 E 3.58 NW x x Other     x x x x x 1.24 Clear
11/28/2020 03:18 AM x x x x x x 29.94 0.89 E 0.45 E 3.58 NW x x Other     x x x x x 1.24 Clear
11/28/2020 03:19 AM x x x x x x 29.94 0.89 E 0.67 SE 3.58 NW x x Other     x x x x x 1.24 Clear
11/28/2020 03:20 AM x x x x x x 29.94 0.89 E 1.12 E 3.58 NW x x Other     x x x x x 1.24 Clear
11/28/2020 03:21 AM x x x x x x 29.94 1.34 E 0.89 E 3.58 NW x x Other     x x x x x 1.24 Clear
11/28/2020 03:22 AM x x x x x x 29.94 1.34 E 0.67 S 3.58 NW x x Other     x x x x x 1.24 Clear
11/28/2020 03:23 AM x x x x x x 29.94 0.89 E 1.12 E 2.68 E x x Other     x x x x x 1.24 Clear
11/28/2020 03:24 AM x x x x x x 29.94 0.89 E 0.67 SW 2.68 E x x Other     x x x x x 1.24 Clear
11/28/2020 03:25 AM x x x x x x 29.94 1.12 E 0.22 N 2.68 E x x Other     x x x x x 1.24 Clear
11/28/2020 03:26 AM x x x x x x 29.94 1.79 E 2.01 SE 3.36 E x x Other     x x x x x 1.24 Clear
11/28/2020 03:27 AM x x x x x x 29.94 2.46 E 2.91 E 3.36 E x x Other     x x x x x 1.24 Clear
11/28/2020 03:28 AM x x x x x x 29.94 2.24 E 2.01 E 3.36 E x x Other     x x x x x 1.24 Clear
11/28/2020 03:29 AM x x x x x x 29.94 2.01 E 1.79 E 3.36 E x x Other     x x x x x 1.24 Clear
11/28/2020 03:30 AM x x x x x x 29.94 1.57 E 2.46 E 3.36 E x x Other     x x x x x 1.24 Clear
11/28/2020 03:31 AM x x x x x x 29.94 1.79 E 2.46 E 3.36 E x x Other     x x x x x 1.24 Clear
11/28/2020 03:32 AM x x x x x x 29.94 2.24 E 2.01 E 3.36 E x x Other     x x x x x 1.24 Clear
11/28/2020 03:33 AM x x x x x x 29.94 2.24 E 2.46 E 3.36 E x x Other     x x x x x 1.24 Clear
11/28/2020 03:34 AM x x x x x x 29.94 2.68 E 3.58 E 3.58 E x x Other     x x x x x 1.24 Clear
11/28/2020 03:35 AM x x x x x x 29.94 2.91 E 3.36 E 3.80 E x x Other     x x x x x 1.24 Clear
11/28/2020 03:36 AM x x x x x x 29.94 2.91 E 2.46 E 3.80 E x x Other     x x x x x 1.24 Clear
11/28/2020 03:37 AM x x x x x x 29.94 2.68 E 2.91 E 3.80 E x x Other     x x x x x 1.24 Clear
11/28/2020 03:38 AM x x x x x x 29.94 2.68 E 2.68 E 3.80 E x x Other     x x x x x 1.24 Clear
11/28/2020 03:39 AM x x x x x x 29.94 2.68 E 3.13 E 3.80 E x x Other     x x x x x 1.24 Clear
11/28/2020 03:40 AM x x x x x x 29.94 3.13 E 3.13 E 3.80 E x x Other     x x x x x 1.24 Clear
11/28/2020 03:41 AM x x x x x x 29.94 2.91 E 2.68 E 3.80 E x x Other     x x x x x 1.24 Clear
11/28/2020 03:42 AM x x x x x x 29.94 2.68 E 2.24 NE 3.80 E x x Other     x x x x x 1.24 Clear
11/28/2020 03:43 AM x x x x x x 29.94 2.68 E 3.36 E 3.80 E x x Other     x x x x x 1.24 Clear
11/28/2020 03:44 AM x x x x x x 29.94 2.68 E 2.91 E 3.80 E x x Other     x x x x x 1.24 Clear
11/28/2020 03:45 AM x x x x x x 29.93 2.68 E 2.91 E 3.58 E x x Other     x x x x x 1.24 Clear
11/28/2020 03:46 AM x x x x x x 29.93 2.68 E 3.13 E 3.58 E x x Other     x x x x x 1.24 Clear
11/28/2020 03:47 AM x x x x x x 29.93 2.91 E 3.58 NE 3.58 E x x Other     x x x x x 1.24 Clear
11/28/2020 03:48 AM x x x x x x 29.93 3.36 NE 2.91 NE 3.80 E x x Other     x x x x x 1.24 Clear
11/28/2020 03:49 AM x x x x x x 29.94 3.36 NE 3.13 NE 4.25 E x x Other     x x x x x 1.24 Clear
11/28/2020 03:50 AM x x x x x x 29.94 3.13 NE 2.91 NE 4.25 E x x Other     x x x x x 1.24 Clear
11/28/2020 03:51 AM x x x x x x 29.94 3.13 NE 2.91 NE 4.25 E x x Other     x x x x x 1.24 Clear
11/28/2020 03:52 AM x x x x x x 29.94 3.36 NE 4.03 E 4.25 E x x Other     x x x x x 1.24 Clear
11/28/2020 03:53 AM x x x x x x 29.94 3.36 E 2.91 E 4.25 E x x Other     x x x x x 1.24 Clear
11/28/2020 03:54 AM x x x x x x 29.94 3.13 E 2.91 E 4.25 E x x Other     x x x x x 1.24 Clear
11/28/2020 03:55 AM x x x x x x 29.94 2.68 E 2.46 E 4.25 E x x Other     x x x x x 1.24 Clear
11/28/2020 03:56 AM x x x x x x 29.94 2.46 E 2.24 E 4.25 E x x Other     x x x x x 1.24 Clear
11/28/2020 03:57 AM x x x x x x 29.94 2.68 E 2.91 E 4.25 E x x Other     x x x x x 1.24 Clear
11/28/2020 03:58 AM x x x x x x 29.94 2.68 E 1.79 SE 4.25 E x x Other     x x x x x 1.24 Clear
11/28/2020 03:59 AM x x x x x x 29.94 2.24 E 2.01 E 4.03 E x x Other     x x x x x 1.24 Clear
11/28/2020 04:00 AM x x x x x x 29.94 2.24 E 3.13 E 4.03 E x x Other     x x x x x 1.24 Clear
11/28/2020 04:02 AM x x x x x x 29.94 3.36 E 3.13 E 4.25 E x x Other     x x x x x 1.24 Clear
11/28/2020 04:03 AM x x x x x x 29.94 3.13 E 3.36 E 4.25 E x x Other     x x x x x 1.24 Clear
11/28/2020 04:04 AM x x x x x x 29.94 2.91 E 3.36 E 4.25 E x x Other     x x x x x 1.24 Clear
11/28/2020 04:05 AM x x x x x x 29.94 2.91 E 3.13 E 4.25 E x x Other     x x x x x 1.24 Clear
11/28/2020 04:06 AM x x x x x x 29.94 3.13 E 3.13 E 4.25 E x x Other     x x x x x 1.24 Clear
11/28/2020 04:07 AM x x x x x x 29.94 3.13 E 3.36 E 4.25 E x x Other     x x x x x 1.24 Clear
11/28/2020 04:08 AM x x x x x x 29.94 3.36 NE 2.91 NE 4.47 E x x Other     x x x x x 1.24 Clear
11/28/2020 04:09 AM x x x x x x 29.94 3.13 E 2.01 E 4.47 E x x Other     x x x x x 1.24 Clear
11/28/2020 04:10 AM x x x x x x 29.94 2.68 E 2.68 E 4.47 E x x Other     x x x x x 1.24 Clear
11/28/2020 04:11 AM x x x x x x 29.94 2.46 E 2.46 E 4.47 E x x Other     x x x x x 1.24 Clear
11/28/2020 04:12 AM x x x x x x 29.94 2.24 E 2.01 E 4.47 E x x Other     x x x x x 1.24 Clear
11/28/2020 04:13 AM x x x x x x 29.94 2.01 E 1.79 E 4.47 E x x Other     x x x x x 1.24 Clear
11/28/2020 04:14 AM x x x x x x 29.94 2.01 E 2.24 E 4.47 E x x Other     x x x x x 1.24 Clear
11/28/2020 04:15 AM x x x x x x 29.94 2.68 E 3.58 E 4.47 E x x Other     x x x x x 1.24 Clear
11/28/2020 04:16 AM x x x x x x 29.94 2.68 E 2.46 E 4.47 E x x Other     x x x x x 1.24 Clear
11/28/2020 04:17 AM x x x x x x 29.94 2.68 NE 3.13 NE 3.80 NE x x Other     x x x x x 1.24 Clear
11/28/2020 04:18 AM x x x x x x 29.94 3.13 NE 3.58 NE 4.03 NE x x Other     x x x x x 1.24 Clear
11/28/2020 04:19 AM x x x x x x 29.94 3.58 NE 3.58 E 4.25 E x x Other     x x x x x 1.24 Clear
11/28/2020 04:20 AM x x x x x x 29.94 3.80 E 3.58 E 4.25 E x x Other     x x x x x 1.24 Clear
11/28/2020 04:21 AM x x x x x x 29.94 3.80 E 3.13 E 4.47 E x x Other     x x x x x 1.24 Clear
11/28/2020 04:22 AM x x x x x x 29.94 3.58 E 4.25 E 4.47 E x x Other     x x x x x 1.24 Clear
11/28/2020 04:23 AM x x x x x x 29.94 3.58 E 4.03 E 4.47 E x x Other     x x x x x 1.24 Clear
11/28/2020 04:24 AM x x x x x x 29.94 3.58 E 3.13 E 4.47 E x x Other     x x x x x 1.24 Clear
11/28/2020 04:26 AM x x x x x x 29.94 3.13 E 3.13 E 4.47 E x x Other     x x x x x 1.24 Clear
11/28/2020 04:27 AM x x x x x x 29.94 2.91 E 2.91 E 4.47 E x x Other     x x x x x 1.24 Clear
11/28/2020 04:28 AM x x x x x x 29.94 2.91 E 3.13 E 4.47 E x x Other     x x x x x 1.24 Clear
11/28/2020 04:29 AM x x x x x x 29.94 2.91 E 3.36 NE 4.47 E x x Other     x x x x x 1.24 Clear
11/28/2020 04:30 AM x x x x x x 29.94 2.68 E 3.36 E 4.25 E x x Other     x x x x x 1.24 Clear
11/28/2020 04:31 AM x x x x x x 29.94 2.91 E 3.13 E 4.25 E x x Other     x x x x x 1.24 Clear
11/28/2020 04:32 AM x x x x x x 29.94 3.58 E 4.03 E 4.25 E x x Other     x x x x x 1.24 Clear
11/28/2020 04:33 AM x x x x x x 29.94 3.80 E 3.58 E 4.92 E x x Other     x x x x x 1.24 Clear
11/28/2020 04:34 AM x x x x x x 29.94 3.58 E 3.13 E 4.92 E x x Other     x x x x x 1.24 Clear
11/28/2020 04:35 AM x x x x x x 29.94 3.13 E 3.13 E 4.92 E x x Other     x x x x x 1.24 Clear
11/28/2020 04:36 AM x x x x x x 29.94 2.91 E 2.68 E 4.92 E x x Other     x x x x x 1.24 Clear
11/28/2020 04:37 AM x x x x x x 29.94 2.68 E 2.68 E 4.92 E x x Other     x x x x x 1.24 Clear
11/28/2020 04:38 AM x x x x x x 29.94 2.68 E 2.24 E 4.92 E x x Other     x x x x x 1.24 Clear
11/28/2020 04:39 AM x x x x x x 29.94 2.91 E 3.13 E 4.92 E x x Other     x x x x x 1.24 Clear
11/28/2020 04:40 AM x x x x x x 29.94 3.13 E 2.46 E 4.92 E x x Other     x x x x x 1.24 Clear
11/28/2020 04:42 AM x x x x x x 29.94 3.13 E 2.91 N 4.47 E x x Other     x x x x x 1.24 Clear
11/28/2020 04:43 AM x x x x x x 29.95 3.13 E 3.36 NE 4.03 E x x Other     x x x x x 1.24 Clear
11/28/2020 04:44 AM x x x x x x 29.94 2.68 E 2.46 E 4.03 E x x Other     x x x x x 1.24 Clear
11/28/2020 04:45 AM x x x x x x 29.94 2.46 E 2.46 E 4.03 E x x Other     x x x x x 1.24 Clear
11/28/2020 04:46 AM x x x x x x 29.95 1.79 E 1.34 N 4.03 E x x Other     x x x x x 1.24 Clear
11/28/2020 04:47 AM x x x x x x 29.94 1.57 E 1.57 NW 4.03 E x x Other     x x x x x 1.24 Clear
11/28/2020 04:48 AM x x x x x x 29.94 1.34 N 1.12 W 3.80 E x x Other     x x x x x 1.24 Clear
11/28/2020 04:50 AM x x x x x x 29.94 1.57 NW 1.57 NE 3.80 E x x Other     x x x x x 1.24 Clear
11/28/2020 04:52 AM x x x x x x 29.94 2.46 E 2.68 E 4.03 E x x Other     x x x x x 1.24 Clear
11/28/2020 04:53 AM x x x x x x 29.94 2.68 E 2.68 E 4.03 E x x Other     x x x x x 1.24 Clear
11/28/2020 04:54 AM x x x x x x 29.94 2.91 E 2.68 E 4.03 E x x Other     x x x x x 1.24 Clear
11/28/2020 04:55 AM x x x x x x 29.94 2.68 E 2.68 E 4.03 E x x Other     x x x x x 1.24 Clear
11/28/2020 04:56 AM x x x x x x 29.94 2.01 E 1.12 NE 4.03 E x x Other     x x x x x 1.24 Clear
11/28/2020 04:57 AM x x x x x x 29.94 2.01 E 1.79 E 4.03 E x x Other     x x x x x 1.24 Clear
11/28/2020 04:58 AM x x x x x x 29.94 2.01 E 1.57 E 4.03 E x x Other     x x x x x 1.24 Clear
11/28/2020 04:59 AM x x x x x x 29.94 1.57 E 1.57 E 4.03 E x x Other     x x x x x 1.24 Clear
11/28/2020 05:00 AM x x x x x x 29.95 1.57 E 1.34 E 4.03 E x x Other     x x x x x 1.24 Clear
11/28/2020 05:01 AM x x x x x x 29.94 1.34 E 0.89 N 4.03 E x x Other     x x x x x 1.24 Clear
11/28/2020 05:02 AM x x x x x x 29.94 1.12 E 1.57 E 4.03 E x x Other     x x x x x 1.24 Clear
11/28/2020 05:03 AM x x x x x x 29.94 0.89 SE 0.89 SE 4.03 E x x Other     x x x x x 1.24 Clear
11/28/2020 05:04 AM x x x x x x 29.95 0.89 SE 0.67 SW 2.91 E x x Other     x x x x x 1.24 Clear
11/28/2020 05:05 AM x x x x x x 29.95 0.89 SW 0.67 SW 2.91 E x x Other     x x x x x 1.24 Clear
11/28/2020 05:06 AM x x x x x x 29.95 0.67 SW 2.46 NW 2.68 E x x Other     x x x x x 1.24 Clear
11/28/2020 05:07 AM x x x x x x 29.95 1.12 SW 1.57 SW 2.46 NW x x Other     x x x x x 1.24 Clear
11/28/2020 05:08 AM x x x x x x 29.94 1.34 W 1.57 W 2.68 W x x Other     x x x x x 1.24 Clear
11/28/2020 05:09 AM x x x x x x 29.94 0.89 W 0.67 W 2.68 W x x Other     x x x x x 1.24 Clear
11/28/2020 05:10 AM x x x x x x 29.95 0.45 S 0.67 S 2.68 W x x Other     x x x x x 1.24 Clear
11/28/2020 05:11 AM x x x x x x 29.95 0.45 S 0.67 W 2.68 W x x Other     x x x x x 1.24 Clear
11/28/2020 05:12 AM x x x x x x 29.95 0.45 SW 0.45 S 2.68 W x x Other     x x x x x 1.24 Clear
11/28/2020 05:13 AM x x x x x x 29.95 0.45 S 0.22 S 2.68 W x x Other     x x x x x 1.24 Clear
11/28/2020 05:14 AM x x x x x x 29.95 0.22 SE 0.45 SE 2.68 W x x Other     x x x x x 1.24 Clear
11/28/2020 05:15 AM x x x x x x 29.95 0.45 SE 0.67 N 2.68 W x x Other     x x x x x 1.24 Clear
11/28/2020 05:16 AM x x x x x x 29.95 0.45 N 0.89 NE 2.68 W x x Other     x x x x x 1.24 Clear
11/28/2020 05:17 AM x x x x x x 29.95 0.67 N 2.46 W 2.68 W x x Other     x x x x x 1.24 Clear
11/28/2020 05:18 AM x x x x x x 29.95 1.12 NW 0.89 SW 3.80 W x x Other     x x x x x 1.24 Clear
11/28/2020 05:19 AM x x x x x x 29.95 1.34 NW 0.45 E 3.80 W x x Other     x x x x x 1.24 Clear
11/28/2020 05:20 AM x x x x x x 29.95 0.89 E 0.67 E 3.80 W x x Other     x x x x x 1.24 Clear
11/28/2020 05:21 AM x x x x x x 29.95 0.89 E 0.89 N 3.80 W x x Other     x x x x x 1.24 Clear
11/28/2020 05:22 AM x x x x x x 29.95 1.12 NW 2.01 NW 3.80 W x x Other     x x x x x 1.24 Clear
11/28/2020 05:23 AM x x x x x x 29.95 1.57 NW 1.34 E 3.80 W x x Other     x x x x x 1.24 Clear
11/28/2020 05:24 AM x x x x x x 29.95 1.57 E 2.46 W 4.03 W x x Other     x x x x x 1.24 Clear
11/28/2020 05:25 AM x x x x x x 29.95 1.57 W 0.22 S 4.03 W x x Other     x x x x x 1.24 Clear
11/28/2020 05:26 AM x x x x x x 29.95 0.89 W 2.46 NE 4.03 W x x Other     x x x x x 1.24 Clear
11/28/2020 05:27 AM x x x x x x 29.95 0.89 NE 2.24 NE 4.03 W x x Other     x x x x x 1.24 Clear
11/28/2020 05:28 AM x x x x x x 29.95 1.57 NE 1.34 E 4.03 W x x Other     x x x x x 1.24 Clear
11/28/2020 05:29 AM x x x x x x 29.95 1.79 E 1.12 E 4.03 W x x Other     x x x x x 1.24 Clear
11/28/2020 05:30 AM x x x x x x 29.95 1.12 E 0.89 NE 4.03 W x x Other     x x x x x 1.24 Clear
11/28/2020 05:31 AM x x x x x x 29.95 1.12 NE 1.34 E 4.03 W x x Other     x x x x x 1.24 Clear
11/28/2020 05:32 AM x x x x x x 29.95 1.34 NE 1.34 N 4.03 W x x Other     x x x x x 1.24 Clear
11/28/2020 05:33 AM x x x x x x 29.95 1.34 NE 1.34 N 4.03 W x x Other     x x x x x 1.24 Clear
11/28/2020 05:34 AM x x x x x x 29.95 1.12 NE 1.12 NE 3.58 NW x x Other     x x x x x 1.24 Clear
11/28/2020 05:35 AM x x x x x x 29.95 1.12 NE 1.57 E 3.80 E x x Other     x x x x x 1.24 Clear
11/28/2020 05:36 AM x x x x x x 29.95 1.12 E 0.22 SW 3.80 E x x Other     x x x x x 1.24 Clear
11/28/2020 05:37 AM x x x x x x 29.95 0.89 E 1.12 E 3.80 E x x Other     x x x x x 1.24 Clear
11/28/2020 05:38 AM x x x x x x 29.95 1.12 E 1.57 NE 3.80 E x x Other     x x x x x 1.24 Clear
11/28/2020 05:39 AM x x x x x x 29.95 0.89 E 0.45 NW 3.80 E x x Other     x x x x x 1.24 Clear
11/28/2020 05:40 AM x x x x x x 29.95 0.67 NE 1.34 E 3.80 E x x Other     x x x x x 1.24 Clear
11/28/2020 05:41 AM x x x x x x 29.95 1.12 NE 1.12 E 3.80 E x x Other     x x x x x 1.24 Clear
11/28/2020 05:42 AM x x x x x x 29.95 1.34 NE 1.79 NE 3.80 E x x Other     x x x x x 1.24 Clear
11/28/2020 05:43 AM x x x x x x 29.95 1.34 E 0.67 E 3.80 E x x Other     x x x x x 1.24 Clear
11/28/2020 05:44 AM x x x x x x 29.95 1.34 NE 1.79 NE 3.80 E x x Other     x x x x x 1.24 Clear
11/28/2020 05:45 AM x x x x x x 29.95 1.34 NE 0.67 NE 2.68 E x x Other     x x x x x 1.24 Clear
11/28/2020 05:46 AM x x x x x x 29.95 1.34 E 1.57 E 2.68 NE x x Other     x x x x x 1.24 Clear
11/28/2020 05:47 AM x x x x x x 29.95 1.57 E 2.01 E 2.68 NE x x Other     x x x x x 1.24 Clear
11/28/2020 05:49 AM x x x x x x 29.95 1.34 E 0.67 NE 2.91 SE x x Other     x x x x x 1.24 Clear
11/28/2020 05:50 AM x x x x x x 29.95 1.12 N 1.79 NW 2.91 SE x x Other     x x x x x 1.24 Clear
11/28/2020 05:51 AM x x x x x x 29.95 1.34 N 1.12 N 2.91 SE x x Other     x x x x x 1.24 Clear
11/28/2020 05:53 AM x x x x x x 29.95 1.12 N 2.68 NW 3.80 NW x x Other     x x x x x 1.24 Clear
11/28/2020 05:54 AM x x x x x x 29.95 1.34 N 0.22 NW 3.80 NW x x Other     x x x x x 1.24 Clear
11/28/2020 05:55 AM x x x x x x 29.95 1.34 E 0.89 NW 3.80 NW x x Other     x x x x x 1.24 Clear
11/28/2020 05:57 AM x x x x x x 29.95 1.34 E 1.34 N 3.80 NW x x Other     x x x x x 1.24 Clear
11/28/2020 05:58 AM x x x x x x 29.95 1.12 E 1.57 NE 3.80 NW x x Other     x x x x x 1.24 Clear
11/28/2020 05:59 AM x x x x x x 29.95 1.34 E 1.12 E 3.80 NW x x Other     x x x x x 1.24 Clear
11/28/2020 06:00 AM x x x x x x 29.95 1.34 NE 2.01 NW 3.80 NW x x Other     x x x x x 1.24 Clear
11/28/2020 06:01 AM x x x x x x 29.95 1.34 N 1.12 NW 3.80 NW x x Other     x x x x x 1.24 Clear
11/28/2020 06:02 AM x x x x x x 29.95 1.12 N 0.89 NW 3.80 NW x x Other     x x x x x 1.24 Clear
11/28/2020 06:03 AM x x x x x x 29.95 0.89 NE 1.57 NE 3.36 E x x Other     x x x x x 1.24 Clear
11/28/2020 06:05 AM x x x x x x 29.95 1.34 NE 1.79 NE 3.36 E x x Other     x x x x x 1.24 Clear
11/28/2020 06:06 AM x x x x x x 29.95 1.34 N 0.67 NE 2.91 NW x x Other     x x x x x 1.24 Clear
11/28/2020 06:07 AM x x x x x x 29.95 2.01 E 1.79 E 4.25 E x x Other     x x x x x 1.24 Clear
11/28/2020 06:08 AM x x x x x x 29.95 1.79 E 0.89 E 4.25 E x x Other     x x x x x 1.24 Clear
11/28/2020 06:09 AM x x x x x x 29.95 0.89 E 1.12 N 4.25 E x x Other     x x x x x 1.24 Clear
11/28/2020 06:10 AM x x x x x x 29.95 0.89 N 0.89 NW 4.25 E x x Other     x x x x x 1.24 Clear
11/28/2020 06:11 AM x x x x x x 29.95 1.34 N 1.34 NE 4.25 E x x Other     x x x x x 1.24 Clear
11/28/2020 06:12 AM x x x x x x 29.95 1.34 NE 1.57 NE 4.25 E x x Other     x x x x x 1.24 Clear
11/28/2020 06:13 AM x x x x x x 29.95 1.34 NE 2.01 NE 4.25 E x x Other     x x x x x 1.24 Clear
11/28/2020 06:14 AM x x x x x x 29.95 1.12 E 0.67 E 4.25 E x x Other     x x x x x 1.24 Clear
11/28/2020 06:15 AM x x x x x x 29.95 0.89 NE 0.89 SW 4.25 E x x Other     x x x x x 1.24 Clear
11/28/2020 06:16 AM x x x x x x 29.95 1.12 W 1.12 N 3.36 E x x Other     x x x x x 1.24 Clear
11/28/2020 06:17 AM x x x x x x 29.96 1.57 NW 2.24 NW 4.92 NW x x Other     x x x x x 1.24 Clear
11/28/2020 06:18 AM x x x x x x 29.95 2.01 NW 1.79 W 4.92 NW x x Other     x x x x x 1.24 Clear
11/28/2020 06:19 AM x x x x x x 29.95 1.79 NW 2.91 NW 4.92 NW x x Other     x x x x x 1.24 Clear
11/28/2020 06:20 AM x x x x x x 29.95 2.24 NW 2.24 W 4.92 NW x x Other     x x x x x 1.24 Clear
11/28/2020 06:21 AM x x x x x x 29.96 2.24 NW 0.89 W 4.92 NW x x Other     x x x x x 1.24 Clear
11/28/2020 06:22 AM x x x x x x 29.96 1.57 NW 0.67 NW 4.92 NW x x Other     x x x x x 1.24 Clear
11/28/2020 06:23 AM x x x x x x 29.96 1.12 W 0.89 NW 4.92 NW x x Other     x x x x x 1.24 Clear
11/28/2020 06:24 AM x x x x x x 29.96 1.12 NW 2.24 W 4.92 NW x x Other     x x x x x 1.24 Clear
11/28/2020 06:26 AM x x x x x x 29.96 0.89 W 0.89 W 4.70 NW x x Other     x x x x x 1.24 Clear
11/28/2020 06:27 AM x x x x x x 29.96 0.89 SW 0.89 W 4.70 NW x x Other     x x x x x 1.24 Clear
11/28/2020 06:28 AM x x x x x x 29.96 0.89 SW 0.67 SW 4.70 NW x x Other     x x x x x 1.24 Clear
11/28/2020 06:29 AM x x x x x x 29.96 0.67 SW 0.22 SW 3.80 W x x Other     x x x x x 1.24 Clear
11/28/2020 06:30 AM x x x x x x 29.96 0.67 SW 2.68 W 2.91 W x x Other     x x x x x 1.24 Clear
11/28/2020 06:31 AM x x x x x x 29.96 1.12 N 1.79 N 2.91 W x x Other     x x x x x 1.24 Clear
11/28/2020 06:32 AM x x x x x x 29.96 1.34 W 1.12 NW 2.91 W x x Other     x x x x x 1.24 Clear
11/28/2020 06:33 AM x x x x x x 29.96 1.79 NW 1.12 NW 4.92 NW x x Other     x x x x x 1.24 Clear
11/28/2020 06:34 AM x x x x x x 29.96 1.57 N 1.57 NE 4.92 NW x x Other     x x x x x 1.24 Clear
11/28/2020 06:35 AM x x x x x x 29.96 0.89 E 0.67 NW 4.92 NW x x Other     x x x x x 1.24 Clear
11/28/2020 06:36 AM x x x x x x 29.96 0.67 NW 0.45 SW 4.92 NW x x Other     x x x x x 1.24 Clear
11/28/2020 06:37 AM x x x x x x 29.96 0.89 N 0.67 SW 4.92 NW x x Other     x x x x x 1.24 Clear
11/28/2020 06:38 AM x x x x x x 29.96 0.89 S 0.89 SW 4.92 NW x x Other     x x x x x 1.24 Clear
11/28/2020 06:39 AM x x x x x x 29.96 1.12 S 0.89 W 4.92 NW x x Other     x x x x x 1.24 Clear
11/28/2020 06:41 AM x x x x x x 29.96 1.12 W 0.89 W 4.92 NW x x Other     x x x x x 1.24 Clear
11/28/2020 06:42 AM x x x x x x 29.96 1.34 W 1.34 N 4.92 NW x x Other     x x x x x 1.24 Clear
11/28/2020 06:43 AM x x x x x x 29.96 1.12 W 0.67 NW 2.01 W x x Other     x x x x x 1.24 Clear
11/28/2020 06:44 AM x x x x x x 29.96 0.67 E 0.89 NE 2.01 W x x Other     x x x x x 1.24 Clear
11/28/2020 06:45 AM x x x x x x 29.96 1.12 E 1.57 W 2.46 NW x x Other     x x x x x 1.24 Clear
11/28/2020 06:46 AM x x x x x x 29.96 2.01 W 1.79 N 3.36 W x x Other     x x x x x 1.24 Clear
11/28/2020 06:47 AM x x x x x x 29.96 2.24 W 2.24 NW 3.58 NW x x Other     x x x x x 1.24 Clear
11/28/2020 06:48 AM x x x x x x 29.96 2.01 W 1.57 W 3.58 NW x x Other     x x x x x 1.24 Clear
11/28/2020 06:49 AM x x x x x x 29.96 2.01 NW 2.01 W 3.58 NW x x Other     x x x x x 1.24 Clear
11/28/2020 06:50 AM x x x x x x 29.96 2.68 NW 2.68 NW 5.59 NW x x Other     x x x x x 1.24 Clear
11/28/2020 06:51 AM x x x x x x 29.96 2.91 W 2.68 W 5.59 NW x x Other     x x x x x 1.24 Clear
11/28/2020 06:52 AM x x x x x x 29.96 2.68 W 2.46 NW 5.59 NW x x Other     x x x x x 1.24 Clear
11/28/2020 06:53 AM x x x x x x 29.96 2.46 NW 1.57 W 5.59 NW x x Other     x x x x x 1.24 Clear
11/28/2020 06:54 AM x x x x x x 29.96 1.79 NW 0.67 N 5.59 NW x x Other     x x x x x 1.24 Clear
11/28/2020 06:55 AM x x x x x x 29.96 1.57 NW 0.89 N 5.59 NW x x Other     x x x x x 1.24 Clear
11/28/2020 06:56 AM x x x x x x 29.96 1.34 NW 2.01 N 5.59 NW x x Other     x x x x x 1.24 Clear
11/28/2020 06:58 AM x x x x x x 29.96 1.79 NW 2.46 N 5.59 NW x x Other     x x x x x 1.24 Clear
11/28/2020 06:59 AM x x x x x x 29.96 1.57 NW 0.89 N 5.59 NW x x Other     x x x x x 1.24 Clear
11/28/2020 07:00 AM x x x x x x 29.96 1.34 N 0.67 E 4.47 W x x Other     x x x x x 1.24 Clear
11/28/2020 07:01 AM x x x x x x 29.96 1.12 NE 2.01 E 4.47 W x x Other     x x x x x 1.24 Clear
11/28/2020 07:02 AM x x x x x x 29.96 1.34 NE 0.89 N 4.47 W x x Other     x x x x x 1.24 Clear
11/28/2020 07:03 AM x x x x x x 29.96 1.57 NE 1.79 NE 4.47 W x x Other     x x x x x 1.24 Clear
11/28/2020 07:04 AM x x x x x x 29.97 1.34 NE 1.57 N 4.47 W x x Other     x x x x x 1.24 Clear
11/28/2020 07:05 AM x x x x x x 29.97 1.34 NE 0.67 NE 4.47 W x x Other     x x x x x 1.24 Clear
11/28/2020 07:06 AM x x x x x x 29.97 1.34 NE 0.89 N 3.80 W x x Other     x x x x x 1.24 Clear
11/28/2020 07:07 AM x x x x x x 29.97 1.57 NE 2.68 NE 3.80 W x x Other     x x x x x 1.24 Clear
11/28/2020 07:08 AM x x x x x x 29.97 2.01 NE 1.57 NE 4.03 E x x Other     x x x x x 1.24 Clear
11/28/2020 07:09 AM x x x x x x 29.97 2.01 E 2.68 NE 4.03 E x x Other     x x x x x 1.24 Clear
11/28/2020 07:10 AM x x x x x x 29.97 1.34 N 1.57 N 4.03 E x x Other     x x x x x 1.24 Clear
11/28/2020 07:11 AM x x x x x x 29.97 1.34 NE 2.68 NE 4.03 E x x Other     x x x x x 1.24 Clear
11/28/2020 07:12 AM x x x x x x 29.97 1.79 NE 1.79 NE 4.03 E x x Other     x x x x x 1.24 Clear
11/28/2020 07:13 AM x x x x x x 29.97 1.79 N 2.01 NE 4.03 E x x Other     x x x x x 1.24 Clear
11/28/2020 07:14 AM x x x x x x 29.97 1.34 NE 1.57 N 4.03 E x x Other     x x x x x 1.24 Clear
11/28/2020 07:15 AM x x x x x x 29.97 1.34 NE 1.57 NW 4.03 E x x Other     x x x x x 1.24 Clear
11/28/2020 07:16 AM x x x x x x 29.97 1.34 N 1.12 N 4.03 E x x Other     x x x x x 1.24 Clear
11/28/2020 07:17 AM x x x x x x 29.97 1.34 N 2.01 E 3.58 NW x x Other     x x x x x 1.24 Clear
11/28/2020 07:18 AM x x x x x x 29.97 2.01 E 2.24 E 4.47 E x x Other     x x x x x 1.24 Clear
11/28/2020 07:19 AM x x x x x x 29.97 2.46 E 1.57 NE 4.47 E x x Other     x x x x x 1.24 Clear
11/28/2020 07:20 AM x x x x x x 29.97 1.79 N 1.12 N 4.47 E x x Other     x x x x x 1.24 Clear
11/28/2020 07:21 AM x x x x x x 29.97 1.57 N 1.34 NE 4.47 E x x Other     x x x x x 1.24 Clear
11/28/2020 07:22 AM x x x x x x 29.97 1.57 N 2.01 N 4.47 E x x Other     x x x x x 1.24 Clear
11/28/2020 07:23 AM x x x x x x 29.97 1.79 N 1.57 N 4.47 E x x Other     x x x x x 1.24 Clear
11/28/2020 07:24 AM x x x x x x 29.97 1.57 N 0.45 NE 4.47 E x x Other     x x x x x 1.24 Clear
11/28/2020 07:25 AM x x x x x x 29.97 1.12 N 4.03 W 4.47 E x x Other     x x x x x 1.24 Clear
11/28/2020 07:26 AM x x x x x x 29.97 2.01 W 1.12 N 5.82 NW x x Other     x x x x x 1.24 Clear
11/28/2020 07:27 AM x x x x x x 29.97 2.24 W 2.01 W 5.82 NW x x Other     x x x x x 1.24 Clear
11/28/2020 07:28 AM x x x x x x 29.97 1.57 NW 0.89 NW 5.82 NW x x Other     x x x x x 1.24 Clear
11/28/2020 07:30 AM x x x x x x 29.97 2.24 NW 2.68 NW 5.82 NW x x Other     x x x x x 1.24 Clear
11/28/2020 07:31 AM x x x x x x 29.97 3.36 W 4.47 W 5.82 NW x x Other     x x x x x 1.24 Clear
11/28/2020 07:32 AM x x x x x x 29.97 3.58 W 4.03 NW 5.82 NW x x Other     x x x x x 1.24 Clear
11/28/2020 07:33 AM x x x x x x 29.97 3.36 W 3.58 NW 5.82 NW x x Other     x x x x x 1.24 Clear
11/28/2020 07:34 AM x x x x x x 29.97 2.46 NW 0.89 W 5.82 NW x x Other     x x x x x 1.24 Clear
11/28/2020 07:35 AM x x x x x x 29.97 2.01 NW 3.58 NW 5.37 NW x x Other     x x x x x 1.24 Clear
11/28/2020 07:37 AM x x x x x x 29.97 2.46 W 2.68 NW 5.37 NW x x Other     x x x x x 1.24 Clear
11/28/2020 07:38 AM x x x x x x 29.97 1.79 NW 0.89 N 5.37 NW x x Other     x x x x x 1.24 Clear
11/28/2020 07:39 AM x x x x x x 29.97 2.01 NW 1.57 N 5.37 NW x x Other     x x x x x 1.24 Clear
11/28/2020 07:40 AM x x x x x x 29.97 1.79 N 2.68 NW 5.14 W x x Other     x x x x x 1.24 Clear
11/28/2020 07:41 AM x x x x x x 29.97 1.79 NW 1.79 NW 4.92 NW x x Other     x x x x x 1.24 Clear
11/28/2020 07:42 AM x x x x x x 29.97 1.79 NW 0.89 N 4.92 NW x x Other     x x x x x 1.24 Clear
11/28/2020 07:43 AM x x x x x x 29.97 1.34 NW 1.79 N 4.92 NW x x Other     x x x x x 1.24 Clear
11/28/2020 07:44 AM x x x x x x 29.97 1.79 N 1.79 NW 4.92 NW x x Other     x x x x x 1.24 Clear
11/28/2020 07:45 AM x x x x x x 29.97 1.79 N 1.57 N 4.70 W x x Other     x x x x x 1.24 Clear
11/28/2020 07:46 AM x x x x x x 29.97 1.34 N 1.57 NW 4.03 NW x x Other     x x x x x 1.24 Clear
11/28/2020 07:47 AM x x x x x x 29.97 1.12 N 0.89 W 4.03 NW x x Other     x x x x x 1.24 Clear
11/28/2020 07:48 AM x x x x x x 29.97 1.57 NW 1.79 NW 3.58 NW x x Other     x x x x x 1.24 Clear
11/28/2020 07:49 AM x x x x x x 29.97 1.57 NW 1.57 NW 3.58 NW x x Other     x x x x x 1.24 Clear
11/28/2020 07:50 AM x x x x x x 29.98 2.24 W 1.79 NW 4.70 NW x x Other     x x x x x 1.24 Clear
11/28/2020 07:51 AM x x x x x x 29.98 2.91 NW 2.68 W 4.92 NW x x Other     x x x x x 1.24 Clear
11/28/2020 07:52 AM x x x x x x 29.98 2.01 NW 1.34 N 4.92 NW x x Other     x x x x x 1.24 Clear
11/28/2020 07:53 AM x x x x x x 29.97 1.34 N 2.46 NW 4.92 NW x x Other     x x x x x 1.24 Clear
11/28/2020 07:54 AM x x x x x x 29.98 1.57 NW 1.12 NW 4.92 NW x x Other     x x x x x 1.24 Clear
11/28/2020 07:55 AM x x x x x x 29.98 1.79 NW 2.91 N 4.92 NW x x Other     x x x x x 1.24 Clear
11/28/2020 07:56 AM x x x x x x 29.98 1.57 N 1.12 N 4.92 NW x x Other     x x x x x 1.24 Clear
11/28/2020 07:57 AM x x x x x x 29.98 1.79 N 1.79 NE 4.92 NW x x Other     x x x x x 1.24 Clear
11/28/2020 07:58 AM x x x x x x 29.98 1.34 N 0.22 NE 4.92 NW x x Other     x x x x x 1.24 Clear
11/28/2020 07:59 AM x x x x x x 29.98 1.12 N 1.34 NE 4.92 NW x x Other     x x x x x 1.24 Clear
11/28/2020 08:00 AM x x x x x x 29.98 1.34 E 0.67 NW 4.92 NW x x Other     x x x x x 1.24 Clear
11/28/2020 08:01 AM x x x x x x 29.98 1.12 E 1.57 N 4.25 NW x x Other     x x x x x 1.24 Clear
11/28/2020 08:02 AM x x x x x x 29.98 1.34 NW 1.34 NW 4.25 NW x x Other     x x x x x 1.24 Clear
11/28/2020 08:03 AM x x x x x x 29.98 1.57 N 1.12 NW 4.25 NW x x Other     x x x x x 1.24 Clear
11/28/2020 08:04 AM x x x x x x 29.98 1.57 N 1.57 W 4.25 NW x x Other     x x x x x 1.24 Clear
11/28/2020 08:05 AM x x x x x x 29.98 1.57 W 2.01 NW 4.25 NW x x Other     x x x x x 1.24 Clear
11/28/2020 08:06 AM x x x x x x 29.98 1.79 W 1.57 W 3.36 NW x x Other     x x x x x 1.24 Clear
11/28/2020 08:07 AM x x x x x x 29.98 2.01 W 2.01 W 3.36 NW x x Other     x x x x x 1.24 Clear
11/28/2020 08:08 AM x x x x x x 29.98 2.01 W 4.92 W 3.36 W x x Other     x x x x x 1.24 Clear
11/28/2020 08:09 AM x x x x x x 29.98 2.01 W 0.89 NE 4.92 W x x Other     x x x x x 1.24 Clear
11/28/2020 08:10 AM x x x x x x 29.98 2.01 W 2.01 NW 4.92 W x x Other     x x x x x 1.24 Clear
11/28/2020 08:11 AM x x x x x x 29.98 1.34 NW 2.46 W 4.92 W x x Other     x x x x x 1.24 Clear
11/28/2020 08:12 AM x x x x x x 29.98 1.57 W 1.79 NW 4.92 W x x Other     x x x x x 1.24 Clear
11/28/2020 08:13 AM x x x x x x 29.98 1.79 W 0.89 NW 4.92 W x x Other     x x x x x 1.24 Clear
11/28/2020 08:14 AM x x x x x x 29.98 2.46 W 2.91 W 5.37 W x x Other     x x x x x 1.24 Clear
11/28/2020 08:15 AM x x x x x x 29.98 2.46 W 2.46 W 5.37 W x x Other     x x x x x 1.24 Clear
11/28/2020 08:16 AM x x x x x x 29.98 2.01 NW 0.67 NE 5.37 W x x Other     x x x x x 1.24 Clear
11/28/2020 08:17 AM x x x x x x 29.99 1.57 NW 1.79 N 5.37 W x x Other     x x x x x 1.24 Clear
11/28/2020 08:18 AM x x x x x x 29.99 0.89 NE 0.45 E 5.37 W x x Other     x x x x x 1.24 Clear
11/28/2020 08:19 AM x x x x x x 29.99 0.67 N 1.34 NW 5.37 W x x Other     x x x x x 1.24 Clear
11/28/2020 08:20 AM x x x x x x 29.99 1.12 NW 1.79 N 5.37 W x x Other     x x x x x 1.24 Clear
11/28/2020 08:21 AM x x x x x x 29.99 1.34 NW 0.67 SW 5.37 W x x Other     x x x x x 1.24 Clear
11/28/2020 08:22 AM x x x x x x 29.99 1.34 N 0.89 NW 5.37 W x x Other     x x x x x 1.24 Clear
11/28/2020 08:23 AM x x x x x x 29.99 1.34 W 0.89 W 4.03 NW x x Other     x x x x x 1.24 Clear
11/28/2020 08:24 AM x x x x x x 29.99 1.34 W 1.57 W 4.03 NW x x Other     x x x x x 1.24 Clear
11/28/2020 08:25 AM x x x x x x 29.99 1.12 W 1.79 NE 4.03 NW x x Other     x x x x x 1.24 Clear
11/28/2020 08:26 AM x x x x x x 29.99 1.34 N 1.79 NW 3.36 NW x x Other     x x x x x 1.24 Clear
11/28/2020 08:27 AM x x x x x x 29.99 2.01 NW 2.46 NW 4.92 W x x Other     x x x x x 1.24 Clear
11/28/2020 08:28 AM x x x x x x 29.99 2.46 NW 1.34 NW 4.92 W x x Other     x x x x x 1.24 Clear
11/28/2020 08:29 AM x x x x x x 29.99 2.24 NW 1.34 NW 4.92 W x x Other     x x x x x 1.24 Clear
11/28/2020 08:30 AM x x x x x x 29.99 1.79 NW 0.89 N 4.92 W x x Other     x x x x x 1.24 Clear
11/28/2020 08:31 AM x x x x x x 29.99 1.79 NW 1.57 NW 5.14 W x x Other     x x x x x 1.24 Clear
11/28/2020 08:32 AM x x x x x x 29.99 2.24 W 2.24 NW 5.14 W x x Other     x x x x x 1.24 Clear
11/28/2020 08:33 AM x x x x x x 29.99 2.91 W 4.25 W 6.71 NW x x Other     x x x x x 1.24 Clear
11/28/2020 08:34 AM x x x x x x 29.99 2.68 W 2.01 NW 6.71 NW x x Other     x x x x x 1.24 Clear
11/28/2020 08:35 AM x x x x x x 29.99 1.57 W 0.89 NW 6.71 NW x x Other     x x x x x 1.24 Clear
11/28/2020 08:36 AM x x x x x x 29.99 1.34 NW 2.46 NW 6.71 NW x x Other     x x x x x 1.24 Clear
11/28/2020 08:37 AM x x x x x x 29.99 1.79 NW 2.68 NW 6.71 NW x x Other     x x x x x 1.24 Clear
11/28/2020 08:38 AM x x x x x x 29.99 1.79 NW 1.79 NW 6.71 NW x x Other     x x x x x 1.24 Clear
11/28/2020 08:39 AM x x x x x x 29.99 1.79 NW 1.34 NW 6.71 NW x x Other     x x x x x 1.24 Clear
11/28/2020 08:41 AM x x x x x x 29.99 1.34 NW 2.01 NE 6.71 NW x x Other     x x x x x 1.24 Clear
11/28/2020 08:42 AM x x x x x x 29.99 1.34 NW 0.67 NW 6.71 NW x x Other     x x x x x 1.24 Clear
11/28/2020 08:43 AM x x x x x x 29.99 0.89 NW 1.57 N 3.36 NW x x Other     x x x x x 1.24 Clear
11/28/2020 08:44 AM x x x x x x 29.99 1.12 N 1.34 NW 3.36 NE x x Other     x x x x x 1.24 Clear
11/28/2020 08:45 AM x x x x x x 29.99 1.34 N 1.57 NW 3.36 NE x x Other     x x x x x 1.24 Clear
11/28/2020 08:46 AM x x x x x x 29.99 1.12 N 0.67 N 3.36 NE x x Other     x x x x x 1.24 Clear
11/28/2020 08:47 AM x x x x x x 29.99 1.12 W 0.89 NE 3.36 NE x x Other     x x x x x 1.24 Clear
11/28/2020 08:48 AM x x x x x x 29.99 1.34 N 0.45 NE 3.58 W x x Other     x x x x x 1.24 Clear
11/28/2020 08:49 AM x x x x x x 29.99 1.12 N 2.46 NW 3.58 W x x Other     x x x x x 1.24 Clear
11/28/2020 08:50 AM x x x x x x 29.99 0.89 N 1.57 NW 3.58 W x x Other     x x x x x 1.24 Clear
11/28/2020 08:51 AM x x x x x x 29.99 1.57 NW 1.34 NW 4.03 W x x Other     x x x x x 1.24 Clear
11/28/2020 08:52 AM x x x x x x 29.99 1.34 NW 0.89 W 4.03 W x x Other     x x x x x 1.24 Clear
11/28/2020 08:53 AM x x x x x x 29.99 0.67 N 0.67 SW 4.03 W x x Other     x x x x x 1.24 Clear
11/28/2020 08:54 AM x x x x x x 29.99 1.34 NW 4.47 NW 4.03 W x x Other     x x x x x 1.24 Clear
11/28/2020 08:55 AM x x x x x x 29.99 2.24 NW 2.01 NW 4.92 W x x Other     x x x x x 1.24 Clear
11/28/2020 08:56 AM x x x x x x 29.99 2.46 NW 2.68 NW 5.59 W x x Other     x x x x x 1.24 Clear
11/28/2020 08:57 AM x x x x x x 29.99 2.01 W 2.24 SW 5.59 W x x Other     x x x x x 1.24 Clear
11/28/2020 08:58 AM x x x x x x 29.99 1.79 W 1.79 W 5.59 W x x Other     x x x x x 1.24 Clear
11/28/2020 08:59 AM x x x x x x 29.99 2.24 W 2.68 W 5.59 W x x Other     x x x x x 1.24 Clear
11/28/2020 09:00 AM x x x x x x 29.99 2.46 W 1.12 W 5.59 W x x Other     x x x x x 1.24 Clear
11/28/2020 09:01 AM x x x x x x 29.99 2.01 W 3.36 W 5.59 W x x Other     x x x x x 1.24 Clear
11/28/2020 09:02 AM x x x x x x 29.99 1.79 SW 3.58 W 5.59 W x x Other     x x x x x 1.24 Clear
11/28/2020 09:03 AM x x x x x x 29.99 2.24 W 2.24 W 5.59 W x x Other     x x x x x 1.24 Clear
11/28/2020 09:04 AM x x x x x x 29.99 2.68 NW 2.91 W 5.59 W x x Other     x x x x x 1.24 Clear
11/28/2020 09:05 AM x x x x x x 29.99 2.46 W 1.79 W 5.59 W x x Other     x x x x x 1.24 Clear
11/28/2020 09:06 AM x x x x x x 29.99 1.34 W 0.67 W 5.14 NW x x Other     x x x x x 1.24 Clear
11/28/2020 09:07 AM x x x x x x 29.99 1.57 W 2.24 W 5.14 NW x x Other     x x x x x 1.24 Clear
11/28/2020 09:08 AM x x x x x x 29.99 1.79 W 3.36 W 5.14 NW x x Other     x x x x x 1.24 Clear
11/28/2020 09:09 AM x x x x x x 29.99 1.79 W 1.79 NE 5.14 NW x x Other     x x x x x 1.24 Clear
11/28/2020 09:10 AM x x x x x x 29.99 2.24 NW 1.79 W 5.14 NW x x Other     x x x x x 1.24 Clear
11/28/2020 09:11 AM x x x x x x 29.99 1.57 NW 1.79 NW 4.70 W x x Other     x x x x x 1.24 Clear
11/28/2020 09:12 AM x x x x x x 29.99 1.34 NW 2.91 NW 4.70 W x x Other     x x x x x 1.24 Clear
11/28/2020 09:13 AM x x x x x x 29.99 1.57 NE 1.57 NE 4.70 W x x Other     x x x x x 1.24 Clear
11/28/2020 09:14 AM x x x x x x 29.99 1.57 NW 1.57 E 4.70 W x x Other     x x x x x 1.24 Clear
11/28/2020 09:15 AM x x x x x x 29.99 1.34 E 1.12 E 4.70 W x x Other     x x x x x 1.24 Clear
11/28/2020 09:16 AM x x x x x x 29.99 1.12 E 2.01 NE 4.70 W x x Other     x x x x x 1.24 Clear
11/28/2020 09:17 AM x x x x x x 29.99 2.01 NW 0.89 W 6.04 NW x x Other     x x x x x 1.24 Clear
11/28/2020 09:18 AM x x x x x x 29.99 2.68 NW 1.34 SW 6.71 NW x x Other     x x x x x 1.24 Clear
11/28/2020 09:19 AM x x x x x x 29.99 2.24 W 1.34 SW 6.71 NW x x Other     x x x x x 1.24 Clear
11/28/2020 09:20 AM x x x x x x 29.99 2.24 SW 1.79 W 6.71 NW x x Other     x x x x x 1.24 Clear
11/28/2020 09:21 AM x x x x x x 29.99 2.24 W 1.34 SW 6.71 NW x x Other     x x x x x 1.24 Clear
11/28/2020 09:22 AM x x x x x x 29.99 1.57 W 1.34 N 6.71 NW x x Other     x x x x x 1.24 Clear
11/28/2020 09:23 AM x x x x x x 29.99 1.57 W 0.89 W 6.71 NW x x Other     x x x x x 1.24 Clear
11/28/2020 09:24 AM x x x x x x 29.99 1.34 W 0.89 W 6.71 NW x x Other     x x x x x 1.24 Clear
11/28/2020 09:25 AM x x x x x x 29.99 1.12 SW 0.89 SW 6.71 NW x x Other     x x x x x 1.24 Clear
11/28/2020 09:26 AM x x x x x x 29.99 1.12 SW 1.12 SW 6.71 NW x x Other     x x x x x 1.24 Clear
11/28/2020 09:27 AM x x x x x x 29.99 1.12 SW 0.45 S 4.47 W x x Other     x x x x x 1.24 Clear
11/28/2020 09:28 AM x x x x x x 29.99 0.89 SW 0.67 S 4.47 W x x Other     x x x x x 1.24 Clear
11/28/2020 09:29 AM x x x x x x 29.99 0.67 SW 1.12 W 4.47 W x x Other     x x x x x 1.24 Clear
11/28/2020 09:30 AM x x x x x x 29.99 0.89 SW 0.67 W 2.68 W x x Other     x x x x x 1.24 Clear
11/28/2020 09:31 AM x x x x x x 29.99 1.12 SW 0.89 W 3.36 W x x Other     x x x x x 1.24 Clear
11/28/2020 09:32 AM x x x x x x 29.99 1.34 W 1.79 W 3.36 W x x Other     x x x x x 1.24 Clear
11/28/2020 09:33 AM x x x x x x 29.99 1.34 SW 0.67 W 3.36 W x x Other     x x x x x 1.24 Clear
11/28/2020 09:34 AM x x x x x x 29.99 1.34 W 1.57 NW 3.36 W x x Other     x x x x x 1.24 Clear
11/28/2020 09:35 AM x x x x x x 29.99 1.34 W 0.89 W 3.36 W x x Other     x x x x x 1.24 Clear
11/28/2020 09:36 AM x x x x x x 29.99 1.34 W 0.45 SW 3.36 W x x Other     x x x x x 1.24 Clear
11/28/2020 09:37 AM x x x x x x 29.99 1.34 W 1.79 W 3.36 W x x Other     x x x x x 1.24 Clear
11/28/2020 09:38 AM x x x x x x 29.99 1.34 SW 1.12 W 3.36 W x x Other     x x x x x 1.24 Clear
11/28/2020 09:39 AM x x x x x x 29.99 1.57 SW 2.01 SW 3.36 W x x Other     x x x x x 1.24 Clear
11/28/2020 09:40 AM x x x x x x 29.99 1.57 SW 1.34 W 3.36 W x x Other     x x x x x 1.24 Clear
11/28/2020 09:41 AM x x x x x x 29.99 1.57 W 1.34 W 3.36 W x x Other     x x x x x 1.24 Clear
11/28/2020 09:42 AM x x x x x x 29.99 1.57 SW 1.34 SW 3.36 W x x Other     x x x x x 1.24 Clear
11/28/2020 09:43 AM x x x x x x 29.99 1.57 SW 1.12 W 3.36 W x x Other     x x x x x 1.24 Clear
11/28/2020 09:44 AM x x x x x x 29.99 1.57 SW 1.57 W 3.36 W x x Other     x x x x x 1.24 Clear
11/28/2020 09:45 AM x x x x x x 29.99 1.79 W 1.57 W 3.36 W x x Other     x x x x x 1.24 Clear
11/28/2020 09:46 AM x x x x x x 29.99 2.01 W 2.01 W 3.36 W x x Other     x x x x x 1.24 Clear
11/28/2020 09:47 AM x x x x x x 29.99 2.24 SW 2.01 SW 3.36 W x x Other     x x x x x 1.24 Clear
11/28/2020 09:48 AM x x x x x x 29.99 2.24 SW 1.57 SW 3.36 W x x Other     x x x x x 1.24 Clear
11/28/2020 09:49 AM x x x x x x 29.99 1.79 SW 1.57 W 2.91 W x x Other     x x x x x 1.24 Clear
11/28/2020 09:50 AM x x x x x x 29.99 1.57 SW 1.57 W 2.91 W x x Other     x x x x x 1.24 Clear
11/28/2020 09:51 AM x x x x x x 29.99 1.57 W 2.68 SW 2.91 SW x x Other     x x x x x 1.24 Clear
11/28/2020 09:52 AM x x x x x x 29.99 2.01 SW 1.57 W 2.91 SW x x Other     x x x x x 1.24 Clear
11/28/2020 09:53 AM x x x x x x 29.99 2.01 W 2.24 SW 2.91 SW x x Other     x x x x x 1.24 Clear
11/28/2020 09:54 AM x x x x x x 29.99 1.79 SW 0.89 SW 2.91 SW x x Other     x x x x x 1.24 Clear
11/28/2020 09:55 AM x x x x x x 29.99 1.34 SW 1.12 NW 2.91 SW x x Other     x x x x x 1.24 Clear
11/28/2020 09:56 AM x x x x x x 29.99 1.57 W 2.01 SW 3.36 W x x Other     x x x x x 1.24 Clear
11/28/2020 09:57 AM x x x x x x 29.99 2.01 W 2.24 W 3.36 W x x Other     x x x x x 1.24 Clear
11/28/2020 09:58 AM x x x x x x 29.99 2.24 W 2.01 W 3.36 W x x Other     x x x x x 1.24 Clear
11/28/2020 09:59 AM x x x x x x 29.99 2.24 W 1.57 SW 4.03 NW x x Other     x x x x x 1.24 Clear
11/28/2020 10:00 AM x x x x x x 29.99 2.01 W 1.79 SW 4.03 NW x x Other     x x x x x 1.24 Clear
11/28/2020 10:01 AM x x x x x x 29.99 1.79 W 1.34 SW 4.03 NW x x Other     x x x x x 1.24 Clear
11/28/2020 10:02 AM x x x x x x 29.99 1.79 SW 0.89 W 4.03 NW x x Other     x x x x x 1.24 Clear
11/28/2020 10:03 AM x x x x x x 29.98 1.34 SW 1.57 SW 4.03 NW x x Other     x x x x x 1.24 Clear
11/28/2020 10:04 AM x x x x x x 29.99 1.12 SW 0.22 W 4.03 NW x x Other     x x x x x 1.24 Clear
11/28/2020 10:05 AM x x x x x x 29.99 0.89 SW 0.45 SW 4.03 NW x x Other     x x x x x 1.24 Clear
11/28/2020 10:06 AM x x x x x x 29.98 0.89 SW 0.67 W 4.03 NW x x Other     x x x x x 1.24 Clear
11/28/2020 10:07 AM x x x x x x 29.98 1.12 SW 1.57 W 4.03 NW x x Other     x x x x x 1.24 Clear
11/28/2020 10:08 AM x x x x x x 29.98 1.12 SW 0.89 SW 3.58 W x x Other     x x x x x 1.24 Clear
11/28/2020 10:09 AM x x x x x x 29.99 1.12 SW 2.24 SW 3.58 W x x Other     x x x x x 1.24 Clear
11/28/2020 10:10 AM x x x x x x 29.99 1.57 SW 1.34 SW 3.36 W x x Other     x x x x x 1.24 Clear
11/28/2020 10:11 AM x x x x x x 29.99 1.57 SW 1.34 SW 2.46 SW x x Other     x x x x x 1.24 Clear
11/28/2020 10:12 AM x x x x x x 29.99 1.34 SW 1.34 W 2.46 SW x x Other     x x x x x 1.24 Clear
11/28/2020 10:13 AM x x x x x x 29.99 1.12 W 1.12 W 2.46 SW x x Other     x x x x x 1.24 Clear
11/28/2020 10:14 AM x x x x x x 29.99 0.89 W 0.89 W 2.46 SW x x Other     x x x x x 1.24 Clear
11/28/2020 10:15 AM x x x x x x 29.99 0.89 W 1.34 W 3.13 NW x x Other     x x x x x 1.24 Clear
11/28/2020 10:16 AM x x x x x x 29.99 1.34 W 1.79 NW 3.13 NW x x Other     x x x x x 1.24 Clear
11/28/2020 10:17 AM x x x x x x 29.99 1.34 W 2.91 W 3.13 NW x x Other     x x x x x 1.24 Clear
11/28/2020 10:18 AM x x x x x x 29.99 1.57 SW 1.34 SW 3.58 W x x Other     x x x x x 1.24 Clear
11/28/2020 10:19 AM x x x x x x 29.99 1.79 SW 1.57 SW 3.58 W x x Other     x x x x x 1.24 Clear
11/28/2020 10:20 AM x x x x x x 29.99 1.79 SW 1.57 NW 3.58 W x x Other     x x x x x 1.24 Clear
11/28/2020 10:21 AM x x x x x x 29.99 1.79 NW 1.12 W 4.47 W x x Other     x x x x x 1.24 Clear
11/28/2020 10:22 AM x x x x x x 29.99 1.57 W 1.79 NW 4.47 W x x Other     x x x x x 1.24 Clear
11/28/2020 10:23 AM x x x x x x 29.99 2.01 NW 1.79 NW 4.47 W x x Other     x x x x x 1.24 Clear
11/28/2020 10:24 AM x x x x x x 29.99 1.79 W 0.89 E 4.47 W x x Other     x x x x x 1.24 Clear
11/28/2020 10:25 AM x x x x x x 29.99 1.34 SE 1.79 W 4.47 W x x Other     x x x x x 1.24 Clear
11/28/2020 10:26 AM x x x x x x 29.99 1.34 W 0.22 NW 4.47 W x x Other     x x x x x 1.24 Clear
11/28/2020 10:27 AM x x x x x x 29.98 1.34 W 0.67 W 4.47 W x x Other     x x x x x 1.24 Clear
11/28/2020 10:28 AM x x x x x x 29.98 1.79 W 2.46 W 4.47 W x x Other     x x x x x 1.24 Clear
11/28/2020 10:29 AM x x x x x x 29.98 2.68 W 4.47 W 5.14 W x x Other     x x x x x 1.24 Clear
11/28/2020 10:30 AM x x x x x x 29.98 4.03 W 3.13 W 6.93 W x x Other     x x x x x 1.24 Clear
11/28/2020 10:31 AM x x x x x x 29.98 4.25 W 2.91 W 6.93 W x x Other     x x x x x 1.24 Clear
11/28/2020 10:32 AM x x x x x x 29.98 3.80 W 6.04 W 6.93 W x x Other     x x x x x 1.24 Clear
11/28/2020 10:33 AM x x x x x x 29.98 4.47 SW 3.58 SW 6.93 W x x Other     x x x x x 1.24 Clear
11/28/2020 10:34 AM x x x x x x 29.98 3.36 W 2.24 W 6.93 W x x Other     x x x x x 1.24 Clear
11/28/2020 10:35 AM x x x x x x 29.98 2.91 W 2.46 W 6.93 W x x Other     x x x x x 1.24 Clear
11/28/2020 10:36 AM x x x x x x 29.98 2.68 SW 2.24 SW 6.93 W x x Other     x x x x x 1.24 Clear
11/28/2020 10:37 AM x x x x x x 29.98 2.24 SW 2.46 SW 6.93 W x x Other     x x x x x 1.24 Clear
11/28/2020 10:38 AM x x x x x x 29.98 2.46 SW 3.80 SW 6.93 W x x Other     x x x x x 1.24 Clear
11/28/2020 10:39 AM x x x x x x 29.98 3.36 SW 4.47 W 6.93 W x x Other     x x x x x 1.24 Clear
11/28/2020 10:40 AM x x x x x x 29.98 4.47 SW 4.47 W 6.04 W x x Other     x x x x x 1.24 Clear
11/28/2020 10:41 AM x x x x x x 29.98 4.70 W 3.80 W 6.04 W x x Other     x x x x x 1.24 Clear
11/28/2020 10:42 AM x x x x x x 29.98 4.25 W 3.13 W 6.04 SW x x Other     x x x x x 1.24 Clear
11/28/2020 10:43 AM x x x x x x 29.98 3.36 W 2.68 W 6.04 SW x x Other     x x x x x 1.24 Clear
11/28/2020 10:44 AM x x x x x x 29.98 3.13 SW 2.24 SW 6.04 SW x x Other     x x x x x 1.24 Clear
11/28/2020 10:45 AM x x x x x x 29.98 2.68 SW 0.45 W 6.04 SW x x Other     x x x x x 1.24 Clear
11/28/2020 10:46 AM x x x x x x 29.98 1.57 SW 4.03 NW 6.04 SW x x Other     x x x x x 1.24 Clear
11/28/2020 10:47 AM x x x x x x 29.98 1.79 NW 2.01 W 6.04 SW x x Other     x x x x x 1.24 Clear
11/28/2020 10:48 AM x x x x x x 29.98 2.68 SW 3.13 SW 6.04 SW x x Other     x x x x x 1.24 Clear
11/28/2020 10:49 AM x x x x x x 29.98 3.36 SW 6.49 W 7.16 W x x Other     x x x x x 1.24 Clear
11/28/2020 10:50 AM x x x x x x 29.98 4.25 SW 4.03 SW 7.16 W x x Other     x x x x x 1.24 Clear
11/28/2020 10:51 AM x x x x x x 29.98 4.47 SW 3.13 W 7.16 W x x Other     x x x x x 1.24 Clear
11/28/2020 10:52 AM x x x x x x 29.98 3.36 W 1.57 W 7.16 W x x Other     x x x x x 1.24 Clear
11/28/2020 10:53 AM x x x x x x 29.98 3.13 W 2.24 W 7.16 W x x Other     x x x x x 1.24 Clear
11/28/2020 10:54 AM x x x x x x 29.98 3.58 W 4.47 W 7.16 W x x Other     x x x x x 1.24 Clear
11/28/2020 10:55 AM x x x x x x 29.98 3.80 W 4.03 W 7.16 W x x Other     x x x x x 1.24 Clear
11/28/2020 10:56 AM x x x x x x 29.98 4.03 W 4.25 W 7.16 W x x Other     x x x x x 1.24 Clear
11/28/2020 10:57 AM x x x x x x 29.97 4.25 W 6.49 NW 7.16 W x x Other     x x x x x 1.24 Clear
11/28/2020 10:58 AM x x x x x x 29.97 5.14 W 4.92 W 7.16 W x x Other     x x x x x 1.24 Clear
11/28/2020 10:59 AM x x x x x x 29.97 5.14 W 6.04 W 6.93 W x x Other     x x x x x 1.24 Clear
11/28/2020 11:00 AM x x x x